Weather History for Martha's Vineyard, MA

Change the Weather History Date:

Friday, November 1, 2013

  Actual Average Record
Temperature  
Mean Temperature 66 °F -  
Max Temperature 70 °F 56 °F 72 °F (1956)
Min Temperature 62 °F 39 °F 22 °F (1966)
Growing Degree Days 16 (Base 50)    
Moisture  
Dew Point 61 °F    
Average Humidity 88    
Maximum Humidity 94    
Minimum Humidity 81    
Precipitation  
Precipitation 0.09 in - - ()
Sea Level Pressure  
Sea Level Pressure 29.68 in    
Wind  
Wind Speed 20 mph (SW)    
Max Wind Speed 30 mph    
Max Gust Speed 43 mph    
Visibility 7 miles    
Events Rain    
Averages and records for this station are not official NWS values.
T = Trace of Precipitation, MM = Missing Value Source: NWS Daily Summary

Daily Weather History Graph

Daily Weather History Graph

Search for Another Location

Airport:

Trip Planner

Search our weather history database for the weather conditions in past years. The results will help you decide how hot, cold, wet, or windy it might be!

Date:

Astronomy

Nov. 01, 2013 Rise Set
Actual Time 7:14 AM EDT 5:37 PM EDT
Civil Twilight 6:45 AM EDT 6:05 PM EDT
Nautical Twilight 6:12 AM EDT 6:38 PM EDT
Astronomical Twilight 5:40 AM EDT 7:10 PM EDT
Moon 5:01 AM EDT (11/1) 4:29 PM EDT (11/1)
Length of Visible Light 11h 20m
Length of Day
10h 23m
Waning Crescent, 4% of the Moon is Illuminated
Nov 1
Waning Crescent
Nov 3
New
Nov 10
First Quarter
Nov 17
Full
Nov 25
Last Quarter

Hourly Weather History & Observations

Time (EDT) Temp. Dew Point Humidity Pressure Visibility Wind Dir Wind Speed Gust Speed Precip Events Conditions
12:53 AM 64.0 °F 62.1 °F 93% 29.85 in 7.0 mi SSW 19.6 mph 28.8 mph 0.04 in Rain Light Rain
1:35 AM 64.4 °F 62.6 °F 94% 29.83 in 7.0 mi SSW 18.4 mph 27.6 mph 0.02 in   Overcast
1:50 AM 64.4 °F 62.6 °F 94% 29.83 in 6.0 mi SSW 18.4 mph 26.5 mph 0.02 in   Overcast
1:53 AM 64.0 °F 62.1 °F 93% 29.83 in 6.0 mi SSW 20.7 mph 26.5 mph 0.02 in   Overcast
2:53 AM 64.0 °F 62.1 °F 93% 29.80 in 6.0 mi SSW 18.4 mph 25.3 mph 0.00 in   Overcast
3:24 AM 64.4 °F 62.6 °F 94% 29.77 in 7.0 mi SSW 21.9 mph 31.1 mph N/A   Mostly Cloudy
3:53 AM 64.0 °F 62.1 °F 93% 29.77 in 7.0 mi SSW 21.9 mph 28.8 mph N/A   Mostly Cloudy
4:53 AM 64.0 °F 61.0 °F 90% 29.75 in 7.0 mi SSW 18.4 mph 28.8 mph N/A   Clear
5:53 AM 64.9 °F 62.1 °F 90% 29.73 in 8.0 mi SSW 21.9 mph 29.9 mph N/A   Partly Cloudy
6:49 AM 64.4 °F 62.6 °F 94% 29.73 in 7.0 mi SSW 20.7 mph 31.1 mph N/A   Mostly Cloudy
6:53 AM 64.9 °F 62.1 °F 90% 29.73 in 7.0 mi SSW 23.0 mph 28.8 mph N/A   Mostly Cloudy
7:22 AM 64.4 °F 62.6 °F 94% 29.72 in 7.0 mi SSW 23.0 mph 29.9 mph N/A   Mostly Cloudy
7:53 AM 66.0 °F 63.0 °F 90% 29.71 in 5.0 mi SSW 21.9 mph 33.4 mph N/A   Overcast
8:53 AM 66.0 °F 62.1 °F 87% 29.71 in 6.0 mi SSW 27.6 mph 35.7 mph N/A   Overcast
9:35 AM 66.2 °F 62.6 °F 88% 29.70 in 6.0 mi SSW 24.2 mph 34.5 mph N/A   Overcast
9:53 AM 66.9 °F 63.0 °F 87% 29.69 in 6.0 mi SSW 26.5 mph 33.4 mph N/A   Overcast
10:53 AM 66.9 °F 63.0 °F 87% 29.67 in 6.0 mi SSW 26.5 mph 40.3 mph 0.00 in   Overcast
11:53 AM 68.0 °F 63.0 °F 84% 29.64 in 6.0 mi SSW 25.3 mph 35.7 mph N/A   Haze
12:50 PM 69.8 °F 64.4 °F 83% 29.61 in 7.0 mi SSW 26.5 mph 42.6 mph 0.00 in   Overcast
12:53 PM 69.1 °F 63.0 °F 81% 29.61 in 7.0 mi SSW 29.9 mph 41.4 mph 0.00 in   Overcast
1:14 PM 68.0 °F 62.6 °F 83% 29.61 in 7.0 mi SSW 25.3 mph 34.5 mph N/A   Overcast
1:30 PM 66.2 °F 62.6 °F 88% 29.62 in 6.0 mi SW 24.2 mph 35.7 mph N/A   Haze
1:42 PM 66.2 °F 62.6 °F 88% 29.62 in 1.8 mi SW 26.5 mph 38.0 mph 0.02 in Rain Rain
1:50 PM 64.4 °F 62.6 °F 94% 29.62 in 2.5 mi SW 25.3 mph 39.1 mph 0.03 in Rain Light Rain
1:53 PM 64.9 °F 61.0 °F 87% 29.62 in 4.0 mi SW 19.6 mph 39.1 mph 0.03 in Rain Light Rain
2:41 PM 62.6 °F 57.2 °F 82% 29.61 in 8.0 mi SW 12.7 mph 21.9 mph 0.00 in   Overcast
2:53 PM 62.1 °F 57.0 °F 84% 29.61 in 9.0 mi SW 12.7 mph 21.9 mph 0.00 in   Overcast
3:53 PM 62.1 °F 57.0 °F 84% 29.60 in 10.0 mi SW 12.7 mph - N/A   Overcast
4:45 PM 62.6 °F 57.2 °F 82% 29.60 in 9.0 mi SW 15.0 mph 23.0 mph 0.00 in Rain Light Rain
4:53 PM 62.1 °F 57.0 °F 84% 29.60 in 10.0 mi SW 15.0 mph 24.2 mph 0.00 in   Overcast
5:53 PM 62.1 °F 57.9 °F 86% 29.60 in 10.0 mi SW 15.0 mph 21.9 mph N/A   Overcast
6:53 PM 62.1 °F 57.9 °F 86% 29.62 in 10.0 mi SW 15.0 mph - N/A   Mostly Cloudy
7:53 PM 62.1 °F 57.0 °F 84% 29.65 in 10.0 mi SW 11.5 mph 23.0 mph N/A   Scattered Clouds
8:53 PM 62.1 °F 57.0 °F 84% 29.66 in 10.0 mi SW 12.7 mph 19.6 mph N/A   Clear
9:53 PM 62.1 °F 57.0 °F 84% 29.67 in 10.0 mi SW 12.7 mph - N/A   Clear
10:53 PM 62.1 °F 57.0 °F 84% 29.67 in 10.0 mi WSW 11.5 mph - N/A   Clear
11:48 PM 62.6 °F 59.0 °F 88% 29.67 in 8.0 mi SW 11.5 mph 19.6 mph N/A   Scattered Clouds
11:53 PM 62.1 °F 59.0 °F 90% 29.67 in 8.0 mi SW 10.4 mph 19.6 mph N/A   Scattered Clouds